User: anonymous   Login
Location: Vancouver
(49.2500°N, 123.1330°W)
Time: 17:57:10
(UTC-07:00)
Language:

ERS-2 - Orbit

View from above orbital plane
View from above orbital plane
View from above satellite
View from above satellite

Ground track
Ground track

The orbit data is extracted from the following two-line orbital elements,

1 23560U 95021A   15185.77605434  .00004623  00000-0  24551-3 0  9994
2 23560 098.5176 076.7257 0003653 178.2383 181.8860 15.15917040 67106
Epoch (UTC): 04 July 2015 18:37:31
Eccentricity: 0.0003653
inclination: 98.5176°
perigee height: 515 km
apogee height: 521 km
right ascension of ascending node: 76.7257°
argument of perigee: 178.2383°
revolutions per day: 15.15917040
mean anomaly at epoch: 181.8860°
orbit number at epoch: 6710

The dashed part of the orbit path shows where the satellite is in the earth's shadow,  

DLR